Simultaneous Nadir Overpasses (SNOs) Predictions

Prediction of SNOs between METOP-B and TERRA Satellite Orbit:

Table of predicted SNOs for the next 14.0 days since TLE Epoch: 2/2/2019
Index Date (METOP-B) Time (METOP-B) Lat,Lon (METOP-B) SZA (METOP-B ) Date (TERRA) Time (TERRA) Lat,Lon (TERRA) SZA (TERRA ) Distance(km) Time Diff (sec)
1 02/04/2019 12:14:33 81.29, 43.37 99.79 02/04/2019 12:14:36 81.28, 43.31 99.78 1.00 3
2 02/04/2019 13:05:13 -81.29,-148.82 80.17 02/04/2019 13:04:02 -81.30,-148.73 80.19 1.80 71
3 02/07/2019 06:58:17 -81.28, -57.95 81.11 02/07/2019 06:59:26 -81.27, -58.09 81.10 2.52 69
4 02/07/2019 07:48:56 81.29, 109.90 98.94 02/07/2019 07:48:51 81.30, 109.99 98.96 1.74 5
5 02/10/2019 02:32:41 -81.28, 8.59 81.99 02/10/2019 02:33:43 -81.29, 8.58 81.96 0.34 62
6 02/10/2019 03:23:20 81.29, 176.43 98.07 02/10/2019 03:23:09 81.29, 176.26 98.04 2.95 11
7 02/12/2019 22:07:06 -81.28, 74.72 82.94 02/12/2019 22:08:02 -81.28, 74.83 82.90 1.96 56
8 02/12/2019 22:57:45 81.29,-117.45 97.11 02/12/2019 22:57:28 81.28,-117.51 97.09 1.52 17
9 02/15/2019 17:41:28 -81.29, 141.62 83.83 02/15/2019 17:42:20 -81.29, 141.43 83.83 3.19 52




NCC Satellite Simultaneous Nadir Overpasses (SNOs) Prediction Service
